Weaverville, CA

11:13 AM PDT on June 25, 2017 (GMT -0700)
Weaverville

Weather History for KO54 - October, 2013

Change the Weather History Date:

Friday, October 4, 2013

  Actual Average (KRDD) Record (KRDD)
Temperature  
Mean Temperature 52 °F -  
Max Temperature 71 °F 83 °F 102 °F (1987)
Min Temperature 32 °F 51 °F 41 °F (1989)
Degree Days  
Heating Degree Days 14    
Growing Degree Days 2 (Base 50)    
Moisture  
Dew Point 27 °F    
Average Humidity 51    
Maximum Humidity 100    
Minimum Humidity 12    
Precipitation  
Precipitation 0.00 in - - ()
Sea Level Pressure  
Sea Level Pressure 30.27 in    
Wind  
Wind Speed 2 mph (ENE)    
Max Wind Speed 14 mph    
Max Gust Speed 24 mph    
Visibility 10 miles    
Events      
Averages and records for this station are not official NWS values.
T = Trace of Precipitation, MM = Missing Value Source: NWS Daily Summary

Daily Weather History Graph

Daily Weather History Graph

Search for Another Location

Airport or City:

Trip Planner

Search our weather history database for the weather conditions in past years. The results will help you decide how hot, cold, wet, or windy it might be!

Date:

Astronomy

Oct. 04, 2013 Rise Set
Actual Time 7:11 AM PDT 6:48 PM PDT
Civil Twilight 6:44 AM PDT 7:15 PM PDT
Nautical Twilight 6:12 AM PDT 7:47 PM PDT
Astronomical Twilight 5:40 AM PDT 8:19 PM PDT
Moon 6:53 AM PDT (10/4) 6:33 PM PDT (10/4)
Length of Visible Light 12h 31m
Length of Day
11h 36m
Waning Crescent, 0% of the Moon is Illuminated
Oct 4
Waning Crescent
Oct 4
New
Oct 11
First Quarter
Oct 18
Full
Oct 26
Last Quarter

Hourly Weather History & Observations

Time (PDT) Temp. Windchill Dew Point Humidity Pressure Visibility Wind Dir Wind Speed Gust Speed Precip Events Conditions
12:15 AM 37.4 °F - 32.0 °F 81% 30.26 in 10.0 mi Calm Calm - N/A   Clear
12:35 AM 37.4 °F 33.8 °F 32.0 °F 81% 30.26 in 10.0 mi North 4.6 mph - N/A   Clear
12:55 AM 37.4 °F - 32.0 °F 81% 30.27 in 10.0 mi Calm Calm - N/A   Partly Cloudy
1:15 AM 37.4 °F - 32.0 °F 81% 30.28 in 10.0 mi Calm Calm - N/A   Partly Cloudy
1:35 AM 37.4 °F 34.9 °F 32.0 °F 81% 30.28 in 10.0 mi NNE 3.5 mph - N/A   Clear
1:55 AM 35.6 °F - 32.0 °F 87% 30.28 in 10.0 mi Calm Calm - N/A   Clear
2:15 AM 35.6 °F 32.8 °F 32.0 °F 87% 30.28 in 10.0 mi ENE 3.5 mph - N/A   Clear
2:35 AM 35.6 °F - 32.0 °F 87% 30.28 in 10.0 mi Calm Calm - N/A   Clear
2:55 AM 35.6 °F - 32.0 °F 87% 30.28 in 10.0 mi Calm Calm - N/A   Clear
3:15 AM 33.8 °F - 32.0 °F 93% 30.28 in 10.0 mi Calm Calm - N/A   Clear
3:35 AM 35.6 °F - 32.0 °F 87% 30.28 in 10.0 mi Calm Calm - N/A   Clear
3:55 AM 33.8 °F - 32.0 °F 93% 30.28 in 10.0 mi Calm Calm - N/A   Clear
4:15 AM 33.8 °F 30.8 °F 32.0 °F 93% 30.28 in 10.0 mi North 3.5 mph - N/A   Clear
4:35 AM 32.0 °F 28.7 °F 32.0 °F 100% 30.28 in 10.0 mi North 3.5 mph - N/A   Clear
4:55 AM 32.0 °F - 32.0 °F 100% 30.28 in 10.0 mi Calm Calm - N/A   Clear
5:35 AM 32.0 °F - 30.2 °F 93% 30.28 in 10.0 mi Calm Calm - N/A   Clear
5:55 AM 32.0 °F - 30.2 °F 93% 30.28 in 10.0 mi Calm Calm - N/A   Clear
6:15 AM 32.0 °F - 30.2 °F 93% 30.29 in 10.0 mi Calm Calm - N/A   Clear
6:35 AM 32.0 °F - 30.2 °F 93% 30.29 in 10.0 mi Calm Calm - N/A   Clear
6:55 AM 32.0 °F - 30.2 °F 93% 30.29 in 10.0 mi Calm Calm - N/A   Clear
7:15 AM 32.0 °F - 28.4 °F 87% 30.30 in 10.0 mi Calm Calm - N/A   Clear
7:35 AM 32.0 °F - 28.4 °F 87% 30.31 in 10.0 mi Calm Calm - N/A   Clear
7:55 AM 32.0 °F - 28.4 °F 87% 30.31 in 10.0 mi Calm Calm - N/A   Clear
8:15 AM 32.0 °F - 30.2 °F 93% 30.31 in 10.0 mi Calm Calm - N/A   Clear
8:35 AM 33.8 °F 30.8 °F 32.0 °F 93% 30.32 in 10.0 mi South 3.5 mph - N/A   Clear
8:55 AM 37.4 °F 34.9 °F 32.0 °F 81% 30.32 in 10.0 mi SSW 3.5 mph - N/A   Clear
9:15 AM 39.2 °F 35.9 °F 32.0 °F 75% 30.32 in 10.0 mi SW 4.6 mph - N/A   Clear
9:35 AM 53.6 °F - 26.6 °F 35% 30.32 in 10.0 mi NE 5.8 mph - N/A   Clear
9:55 AM 55.4 °F - 26.6 °F 33% 30.32 in 10.0 mi NE 8.1 mph - N/A   Clear
10:15 AM 57.2 °F - 26.6 °F 31% 30.32 in 10.0 mi ENE 8.1 mph 17.3 mph N/A   Clear
10:35 AM 59.0 °F - 26.6 °F 29% 30.32 in 10.0 mi East 4.6 mph - N/A   Clear
10:55 AM 60.8 °F - 24.8 °F 25% 30.31 in 10.0 mi East 3.5 mph - N/A   Clear
11:15 AM 62.6 °F - 23.0 °F 22% 30.31 in 10.0 mi ENE 4.6 mph - N/A   Clear
11:35 AM 62.6 °F - 23.0 °F 22% 30.31 in 10.0 mi East 9.2 mph 19.6 mph N/A   Clear
11:55 AM 64.4 °F - 23.0 °F 21% 30.30 in 10.0 mi NNE 13.8 mph 24.2 mph N/A   Clear
12:15 PM 64.4 °F - 23.0 °F 21% 30.30 in 10.0 mi NNE 5.8 mph 17.3 mph N/A   Clear
12:35 PM 66.2 °F - 19.4 °F 17% 30.29 in 10.0 mi East 5.8 mph - N/A   Clear
12:55 PM 66.2 °F - 17.6 °F 15% 30.29 in 10.0 mi NE 6.9 mph - N/A   Clear
1:15 PM 66.2 °F - 17.6 °F 15% 30.28 in 10.0 mi East 4.6 mph 17.3 mph N/A   Clear
1:35 PM 68.0 °F - 17.6 °F 15% 30.27 in 10.0 mi East 6.9 mph - N/A   Clear
1:55 PM 69.8 °F - 17.6 °F 14% 30.26 in 10.0 mi ENE 6.9 mph - N/A   Clear
2:15 PM 69.8 °F - 17.6 °F 14% 30.25 in 10.0 mi NE 8.1 mph - N/A   Clear
2:35 PM 71.6 °F - 15.8 °F 12% 30.25 in 10.0 mi ENE 5.8 mph - N/A   Clear
2:55 PM 71.6 °F - 15.8 °F 12% 30.25 in 10.0 mi NE 10.4 mph 17.3 mph N/A   Clear
3:15 PM 71.6 °F - 15.8 °F 12% 30.24 in 10.0 mi East 6.9 mph - N/A   Clear
3:35 PM 71.6 °F - 15.8 °F 12% 30.24 in 10.0 mi NE 6.9 mph - N/A   Clear
3:55 PM 71.6 °F - 17.6 °F 13% 30.23 in 10.0 mi ENE 3.5 mph - N/A   Clear
4:15 PM 71.6 °F - 17.6 °F 13% 30.23 in 10.0 mi NE 9.2 mph - N/A   Clear
4:35 PM 71.6 °F - 17.6 °F 13% 30.23 in 10.0 mi ENE 4.6 mph - N/A   Clear
4:55 PM 71.6 °F - 19.4 °F 14% 30.23 in 10.0 mi ESE 3.5 mph - N/A   Clear
5:15 PM 71.6 °F - 19.4 °F 14% 30.23 in 10.0 mi East 3.5 mph - N/A   Clear
5:35 PM 71.6 °F - 19.4 °F 14% 30.23 in 10.0 mi Calm Calm - N/A   Clear
5:55 PM 69.8 °F - 19.4 °F 15% 30.23 in 10.0 mi NE 4.6 mph - N/A   Clear
6:15 PM 68.0 °F - 23.0 °F 18% 30.23 in 10.0 mi Calm Calm - N/A   Clear
6:35 PM 64.4 °F - 26.6 °F 24% 30.24 in 10.0 mi Calm Calm - N/A   Clear
6:55 PM 59.0 °F - 30.2 °F 34% 30.24 in 10.0 mi Calm Calm - N/A   Clear
7:15 PM 55.4 °F - 32.0 °F 41% 30.24 in 10.0 mi Calm Calm - N/A   Clear
7:35 PM 53.6 °F - 32.0 °F 44% 30.24 in 10.0 mi Calm Calm - N/A   Clear
7:55 PM 50.0 °F - 32.0 °F 50% 30.25 in 10.0 mi ENE 3.5 mph - N/A   Partly Cloudy
8:15 PM 50.0 °F - 32.0 °F 50% 30.25 in 10.0 mi ENE 3.5 mph - N/A   Scattered Clouds
8:35 PM 50.0 °F - 32.0 °F 50% 30.25 in 10.0 mi NNE 3.5 mph - N/A   Scattered Clouds
8:55 PM 48.2 °F - 32.0 °F 54% 30.25 in 10.0 mi SSW 3.5 mph - N/A   Scattered Clouds
9:15 PM 50.0 °F - 30.2 °F 47% 30.25 in 10.0 mi Calm Calm - N/A   Partly Cloudy
9:35 PM 48.2 °F - 30.2 °F 50% 30.26 in 10.0 mi Calm Calm - N/A   Clear
9:55 PM 48.2 °F - 32.0 °F 54% 30.26 in 10.0 mi Calm Calm - N/A   Partly Cloudy
10:15 PM 48.2 °F - 28.4 °F 46% 30.27 in 10.0 mi Calm Calm - N/A   Partly Cloudy
10:35 PM 50.0 °F - 28.4 °F 43% 30.27 in 10.0 mi Calm Calm - N/A   Clear
10:55 PM 48.2 °F - 28.4 °F 46% 30.27 in 10.0 mi Calm Calm - N/A   Partly Cloudy
11:15 PM 50.0 °F - 28.4 °F 43% 30.27 in 10.0 mi Calm Calm - N/A   Clear
11:35 PM 46.4 °F - 28.4 °F 50% 30.27 in 10.0 mi Calm Calm - N/A   Clear
11:55 PM 46.4 °F - 28.4 °F 50% 30.28 in 10.0 mi Calm Calm - N/A   Clear